EDDSEDDN

Guest
Details From EDDS - Stuttgart
To EDDN - Nurnberg
Flight Number -
Tags generated
Created
Modified
Stats Distance 88 nm / 162 km
Max Altitude 8,300 ft / 2,530 m
Waypoints 3
Social Downloads 2
Likes 0
Share VATSIM

Download

Looking for another format? Having issues loading an existing format? Contact us
Advertisement - Login to hide

Notes

Basic altitude profile: - Ascent Rate: 2500ft/min - Ascent Speed: 250kts - Cruise Altitude: 35000ft - Cruise Speed: 420kts - Descent Rate: 1500ft/min - Descent Speed: 250kts Options: - Use NATs: yes - Use PACOTS: yes - Use low airways: yes - Use high airways: yes

Route

EDDS DKB EDDN

ID Type Via Altitude Latitude Longitude Leg Dist Tot Dist Heading (true) Name
O EDDS APT - 0 ft / 0 m 48.68988˚ 9.22196˚ - 0 nm - Stuttgart
DKB VOR - 8,300 ft / 2,530 m 49.14275˚ 10.23831˚ 48 nm 48 nm 55° / 56° DINKELSBUHL VORTAC
O EDDN APT - 0 ft / 0 m 49.49874˚ 11.07758˚ 39 nm 87 nm 57° / 57° Nurnberg

Altitude Profile

Advertisement - Login to hide

EDDS

Details ICAO EDDS (STR)
Name Stuttgart
Region Germany - Civil
Timezone Europe/Berlin (UTC+2.0)
Stats Elevation 1,273 ft / 388 m (AMSL)
Location 48.689876° 9.221962°
Runways 1
Magnetic Variation 2.577° E

METAR

EDDS 210520Z VRB02KT CAVOK 13/09 Q1015 NOSIG

Decode

TAF

TAF EDDS 202300Z 2100/2124 VRB03KT CAVOK PROB30 TEMPO 2102/2107 4500 BR BECMG 2109/2111 04005KT PROB30 TEMPO 2114/2119 SHRA BKN040TCU BECMG 2117/2120 VRB03KT

Decode

Departure Runways

ID Width Length Bearing (true) Bearing (mag) Surface Threshold Offset Overrun Length
07 148 ft / 45 m 10,950 ft / 3,337 m 73.96° 71.38° Concrete 981 ft / 299 m 157 ft / 48 m
25 148 ft / 45 m 10,950 ft / 3,337 m 253.99° 251.41° Concrete 0 ft / 0 m 157 ft / 48 m

EDDN

Details ICAO EDDN (NUE)
Name Nurnberg
Region Germany - Civil
Timezone Europe/Berlin (UTC+2.0)
Stats Elevation 1,045 ft / 319 m (AMSL)
Location 49.498744° 11.077580°
Runways 1
Magnetic Variation 3.073° E

METAR

EDDN 210520Z 08006KT 060V120 CAVOK 15/08 Q1017 NOSIG

Decode

TAF

TAF EDDN 202300Z 2100/2124 08006KT CAVOK BECMG 2106/2108 09012KT BECMG 2116/2118 09006KT

Decode

Destination Runways

ID Width Length Bearing (true) Bearing (mag) Surface Threshold Offset Overrun Length
10 148 ft / 45 m 8,819 ft / 2,688 m 98.60° 95.53° Asphalt 0 ft / 0 m 0 ft / 0 m
28 148 ft / 45 m 8,819 ft / 2,688 m 278.63° 275.56° Asphalt 0 ft / 0 m 0 ft / 0 m

Approach Navaids

Runway Type Ident Frequency Range Bearing (true) Bearing (mag) Slope Elevation
10 Localiser INUE 111.30 MHz 18 nm / 33 km 98.64° 95.57° - 1,046 ft / 319 m (AMSL)
10 Glidescope INUE 111.30 MHz 10 nm / 19 km 98.61° 95.54° 3.00° 1,022 ft / 312 m (AMSL)
28 Localiser INUW 109.10 MHz 23 nm / 43 km 278.59° 275.51° - 1,122 ft / 342 m (AMSL)
28 Glidescope INUW 109.10 MHz 10 nm / 19 km 278.62° 275.54° 3.00° 1,046 ft / 319 m (AMSL)

Popular Alternatives